| time (UTC) | temp F | wind direction | speed MPH | gust MPH | rain 1hr in | rain 24hr in | rain mn in | humidity % | barometer mb |
| 20260505003036 | 68 | 0.0 | 2.0 | 0.00 | 0.00 | 0.00 | 44 | 1001.1 | |
| 20260505000037 | 70 | 247 | 2.0 | 5.0 | 0.00 | 0.00 | 0.00 | 40 | 1001.1 |
| 20260504233016 | 72 | 247 | 2.0 | 6.0 | 0.00 | 0.00 | 0.00 | 39 | 1001.0 |
| 20260504230016 | 73 | 225 | 4.0 | 14.0 | 0.00 | 0.00 | 0.00 | 35 | 1000.9 |
| 20260504223036 | 74 | 202 | 5.0 | 14.0 | 0.00 | 0.00 | 0.00 | 36 | 1000.8 |
| 20260504220016 | 75 | 225 | 6.0 | 18.0 | 0.00 | 0.00 | 0.00 | 35 | 1001.0 |
| 20260504213017 | 76 | 247 | 5.0 | 21.0 | 0.00 | 0.00 | 0.00 | 38 | 1001.2 |
| 20260504210016 | 76 | 225 | 6.0 | 18.0 | 0.00 | 0.00 | 0.00 | 35 | 1001.5 |
| 20260504203016 | 75 | 225 | 7.0 | 17.0 | 0.00 | 0.00 | 0.00 | 37 | 1001.7 |
| 20260504200056 | 75 | 225 | 6.0 | 22.0 | 0.00 | 0.00 | 0.00 | 41 | 1002.0 |
| 20260504193016 | 75 | 225 | 6.0 | 14.0 | 0.00 | 0.00 | 0.00 | 37 | 1002.4 |
| 20260504190016 | 74 | 225 | 6.0 | 16.0 | 0.00 | 0.00 | 0.00 | 40 | 1002.8 |
| 20260504183016 | 74 | 225 | 7.0 | 20.0 | 0.00 | 0.00 | 0.00 | 43 | 1003.2 |
| 20260504180117 | 73 | 225 | 6.0 | 17.0 | 0.00 | 0.00 | 0.00 | 48 | 1003.5 |
| 20260504173015 | 71 | 225 | 7.0 | 23.0 | 0.00 | 0.00 | 0.00 | 48 | 1003.7 |
| 20260504050016 | 53 | 225 | 4.0 | 8.0 | 0.00 | 0.00 | 0.00 | 58 | 1007.2 |
| 20260504043015 | 54 | 247 | 3.0 | 8.0 | 0.00 | 0.00 | 0.00 | 57 | 1007.3 |
| 20260504040016 | 54 | 225 | 4.0 | 12.0 | 0.00 | 0.00 | 0.00 | 57 | 1007.3 |
| 20260504033015 | 54 | 225 | 4.0 | 11.0 | 0.00 | 0.00 | 0.00 | 58 | 1007.2 |
| 20260504030015 | 54 | 225 | 3.0 | 8.0 | 0.00 | 0.00 | 0.00 | 59 | 1007.4 |
| 20260504023035 | 53 | 225 | 4.0 | 12.0 | 0.00 | 0.00 | 0.00 | 60 | 1007.7 |
| 20260504020015 | 52 | 247 | 2.0 | 9.0 | 0.00 | 0.00 | 0.00 | 65 | 1007.7 |
| 20260504013017 | 51 | 315 | 2.0 | 8.0 | 0.00 | 0.00 | 0.00 | 70 | 1007.9 |
| 20260504010017 | 51 | 315 | 2.0 | 8.0 | 0.00 | 0.00 | 0.00 | 73 | 1008.0 |